This is the latest recevied weather packets stored in our database for station/object IZ1GCT. If no packets are shown the sender has not sent any weather packets the latest 10 day(s).
| Time | Temp. | Humidity | Pressure | Rain* | Wind** | Luminosity | Snow |
|---|---|---|---|---|---|---|---|
| 1777715154 | 20° C | 38% | 1027.6 hPa | 0 mm | - | - | - |
| 1777714853 | 20° C | 40% | 1027.5 hPa | 0 mm | - | - | - |
| 1777714554 | 20° C | 40% | 1027.7 hPa | 0 mm | - | - | - |
| 1777714253 | 19.44° C | 40% | 1027.6 hPa | 0 mm | - | - | - |
| 1777713953 | 19.44° C | 40% | 1027.6 hPa | 0 mm | - | - | - |
| 1777713653 | 19.44° C | 38% | 1027.7 hPa | 0 mm | - | - | - |
| 1777713354 | 20° C | 40% | 1027.7 hPa | 0 mm | - | - | - |
| 1777713053 | 19.44° C | 39% | 1027.7 hPa | 0 mm | - | - | - |
| 1777712752 | 18.89° C | 40% | 1027.9 hPa | 0 mm | - | - | - |
| 1777712454 | 18.89° C | 39% | 1027.8 hPa | 0 mm | - | - | - |
| 1777712153 | 19.44° C | 38% | 1027.9 hPa | 0 mm | - | - | - |
| 1777711852 | 19.44° C | 37% | 1027.9 hPa | 0 mm | - | - | - |
| 1777711554 | 19.44° C | 37% | 1028 hPa | 0 mm | - | - | - |
| 1777711253 | 19.44° C | 36% | 1028 hPa | 0 mm | - | - | - |
| 1777710952 | 19.44° C | 36% | 1028 hPa | 0 mm | - | - | - |
| 1777710654 | 19.44° C | 36% | 1027.9 hPa | 0 mm | - | - | - |
| 1777710353 | 19.44° C | 34% | 1028.1 hPa | 0 mm | - | - | - |
| 1777710052 | 19.44° C | 35% | 1028.1 hPa | 0 mm | - | - | - |
| 1777709754 | 18.89° C | 32% | 1028.2 hPa | 0 mm | - | - | - |
| 1777709453 | 19.44° C | 34% | 1028.2 hPa | 0 mm | - | - | - |
| 1777709153 | 18.89° C | 32% | 1028.2 hPa | 0 mm | - | - | - |
| 1777708854 | 19.44° C | 32% | 1028.2 hPa | 0 mm | - | - | - |
| 1777708553 | 20° C | 32% | 1028.2 hPa | 0 mm | - | - | - |
| 1777708253 | 19.44° C | 33% | 1028.3 hPa | 0 mm | - | - | - |
| 1777707954 | 19.44° C | 32% | 1028.3 hPa | 0 mm | - | - | - |
* Rain latest hour (hover to see other rain measurements)
** Current wind speed in m/s (hover to see current wind gust speed)